Regional Weather Roundup
Issued by NWS

Home | Current Version | Previous Version | Text Only | Print | Product List | Glossary On
Versions: 1 2 3 4 5 6 7 8 9 10 11 12 13 14 15 16 17 18 19 20 21 22 23 24 25 26 27 28 29 30 31 32 33 34 35 36 37 38 39 40 41 42 43 44 45 46 47 48 49 50
000
ASUS43 KTOP 300308
RWRKS

WEATHER ROUNDUP FOR KANSAS
NATIONAL WEATHER SERVICE GOODLAND KS
1000 PM CDT SUN MAY 29 2016

NOTE:  "FAIR" INDICATES FEW OR NO CLOUDS BELOW 12,000 FEET WITH NO
SIGNIFICANT WEATHER AND/OR OBSTRUCTIONS TO VISIBILITY.

KSZ001>006-013>018-027>032-041>047-300400-
NORTHWEST KANSAS

CITY           SKY/WX    TMP DP  RH WIND       PRES   REMARKS
GOODLAND       CLOUDY    60  50  69 S28G38    30.03F
HAYS           CLOUDY    64  52  63 SE15      30.06S
HILL CITY      CLOUDY    70  49  47 CALM      30.03R
$$

KSZ061>065-074>080-084>089-300400-
SOUTHWEST KANSAS

CITY           SKY/WX    TMP DP  RH WIND       PRES   REMARKS
DODGE CITY     CLOUDY    63  54  72 S3        30.09R
ELKHART          N/A     57  52  84 S12         N/A
GARDEN CITY    CLOUDY    65  52  62 E9        30.07F
GREAT BEND     CLOUDY    70  55  60 NE7       30.08R
LIBERAL        CLOUDY    61  48  63 S13       30.08F
PRATT          PTCLDY    65  56  72 S5        30.09R
$$

KSZ066>073-081>083-090>101-300400-
SOUTHEAST KANSAS

CITY           SKY/WX    TMP DP  RH WIND       PRES   REMARKS
CHANUTE        PTCLDY    71  67  87 CALM      30.05R
COFFEYVILLE    CLEAR     68  66  93 CALM      30.04R
HUTCHINSON     CLOUDY    68  59  73 S6        30.07R
MEDICINE LODGE   N/A     69  59  70 NE6       30.07R
NEWTON         PTCLDY    66  54  63 SW7       30.08R
PARSONS        CLEAR     69  67  93 S3        30.06R
WICHITA INTL   CLOUDY    71  56  58 SW3       30.06R
WICHITA JABRA  PTCLDY    66  58  75 S7        30.06R
WINFIELD       CLOUDY    71  61  70 SE6       30.05R
$$

KSZ007>012-019>026-033>040-048>060-102>105-300400-
NORTHEAST KANSAS

CITY           SKY/WX    TMP DP  RH WIND       PRES   REMARKS
CONCORDIA      CLOUDY    69  61  75 S6        30.05R
EMPORIA        CLOUDY    67  64  90 E6        30.06R
LAWRENCE       CLOUDY    68  64  87 CALM      30.05R
MANHATTAN      CLOUDY    67  64  90 CALM      30.05R
MARYSVILLE     CLOUDY    68  63  83 S3        30.04R THUNDER
OLATHE IND     CLOUDY    71  60  68 CALM      30.07R
OLATHE EXE     CLOUDY    72  60  66 SE5       30.06R
SALINA         CLOUDY    70  60  70 SW8       30.05R
TOPEKA BILLARD CLOUDY    72  66  81 CALM      30.04R
TOPEKA FORBES  CLOUDY    71  66  84 S5        30.05R
$$



USA.gov is the U.S. government's official web portal to all federal, state and local government web resources and services.